This demonstration page uses our WeatherBlox Daily Observations layout. Learn more.

Left ArrowRight Arrow

Hourly Observations for September 12, 2020

Temp ( °F °C ) Dew Point ( °F °C ) Humidity (%) Winds ( mph kmh ) Pressure ( in mb ) Visibility ( mi km ) Precip ( " mm )
12:53 am 00:53 Clear 63 17.2 57 13.9 81 81 ESE 7 11 29.98 1015 10 16 0.00 0.00
1:53 am 01:53 Clear 63 17.2 57 13.9 81 81 ESE 9 15 29.97 1015 10 16 0.00 0.00
2:53 am 02:53 Clear 62 16.7 58 14.4 86 86 E 6 9 29.96 1015 10 16 0.00 0.00
3:53 am 03:53 Clear 60 15.6 57 13.9 90 90 N 5 7 29.96 1015 9 14 0.00 0.00
4:53 am 04:53 Mostly Clear 59 15 57 13.9 93 93 NNE 6 9 29.95 1014 7 11 0.00 0.00
5:53 am 05:53 Clear with Mist and Fog 58 14.4 57 13.9 97 97 N 5 7 29.95 1014 6 10 0.00 0.00
6:53 am 06:53 Clear with Mist and Fog 58 14.4 56 13.3 93 93 N 5 7 29.95 1014 5 8 0.00 0.00
7:53 am 07:53 Sunny with Mist and Fog 58 14.4 56 13.3 93 93 Calm 29.96 1015 6 10 0.00 0.00
8:53 am 08:53 Sunny with Mist and Fog 60 15.6 58 14.4 93 93 N 5 7 29.97 1015 4 6 0.00 0.00
9:53 am 09:53 Sunny 65 18.3 60 15.6 84 84 Calm 29.97 1015 10 16 0.00 0.00
10:53 am 10:53 Hazy 69 20.6 60 15.6 73 73 Calm 29.97 1015 2 3 0.00 0.00
11:02 am 11:02 Sunny 69 20.6 60 15.6 73 73 Calm 29.95 1014 10 16 0.00 0.00
11:53 am 11:53 Sunny 72 22.2 59 15 64 64 Calm 29.97 1015 10 16 0.00 0.00
12:53 pm 12:53 Sunny 77 25 60 15.6 56 56 VRB 7 11 29.95 1014 10 16 0.00 0.00
1:53 pm 13:53 Sunny 80 26.7 59 15 49 49 Calm 29.92 1013 10 16 0.00 0.00
2:53 pm 14:53 Sunny 84 28.9 60 15.6 44 44 N 9 15 29.89 1012 10 16 0.00 0.00
3:53 pm 15:53 Sunny 85 29.4 58 14.4 40 40 VRB 5 7 29.87 1012 10 16 0.00 0.00
4:53 pm 16:53 Sunny 86 30 57 13.9 37 37 Calm 29.85 1011 10 16 0.00 0.00
5:53 pm 17:53 Sunny 86 30 57 13.9 37 37 NNE 3 6 29.85 1011 10 16 0.00 0.00
6:53 pm 18:53 Sunny 85 29.4 56 13.3 37 37 Calm 29.85 1011 10 16 0.00 0.00
7:53 pm 19:53 Sunny 81 27.2 58 14.4 45 45 E 3 6 29.87 1012 10 16 0.00 0.00
8:53 pm 20:53 Clear 78 25.6 60 15.6 54 54 Calm 29.89 1012 10 16 0.00 0.00
9:53 pm 21:53 Clear 76 24.4 61 16.1 60 60 Calm 29.91 1013 10 16 0.00 0.00
10:53 pm 22:53 Clear 73 22.8 61 16.1 66 66 Calm 29.92 1013 10 16 0.00 0.00
11:53 pm 23:53 Clear 69 20.6 61 16.1 76 76 ENE 6 9 29.93 1014 10 16 0.00 0.00

Powered by AerisWeather